Location: Bauerbach
(50.4985°N, 10.3912°E)
Time: 20:48:58
(UTC+00:00)

Cosmos 1484 Rocket - Pass Details

Date: 13 January 2026
Orbit: 439 x 466 km, 97.6° (Epoch: 15 February)

Event Time Altitude Azimuth Distance (km) Brightness Sun altitude
Rises 06:21:29 0° 1° (N) 2,449 5.9 -8.2°
Reaches altitude 10° 06:23:52 10° 343° (NNW) 1,577 4.8 -7.9°
Maximum altitude 06:26:21 19° 296° (WNW) 1,118 3.8 -7.5°
Drops below altitude 10° 06:28:50 10° 248° (WSW) 1,578 4.8 -7.2°
Sets 06:31:14 0° 231° (SW) 2,450 5.9 -6.8°
